Location: Mohawk View
(42.7837°N, 73.7885°W)
Time: 17:07:01
(UTC+00:00)

Cosmos 1459 Rocket - Pass Details

Date: 17 June 2021
Orbit: 937 x 999 km, 83.0° (Epoch: 01 August)

Event Time Altitude Azimuth Distance (km) Brightness Sun altitude
Rises 02:15:26 0° 354° (N) 3,610 8.0 -14.2°
Reaches altitude 10° 02:17:56 10° 356° (N) 2,660 7.2 -14.5°
Maximum altitude 02:24:00 73° 81° (E) 983 3.9 -15.1°
Enters shadow 02:28:07 21° 163° (SSE) 1,954 5.0 -15.6°
